Vorticity
13 11 9 6 5 8 13 9 14 20 16 6 -1 -1 1 1 1 2 3 3 3 4
10 6 8 7 10 12 13 12 15 12 8 1 -0 1 2 1 3 4 4 2 2 5
9 9 7 9 10 13 11 6 10 12 0 -1 1 1 1 3 3 4 2 3 7 6
9 11 11 14 15 10 8 11 13 4 -1 1 1 1 3 3 4 4 6 7 6 6
9 12 13 13 9 12 12 14 3 0 1 1 2 4 5 4 5 6 6 8 7 5
11 12 13 12 13 14 13 2 1 1 1 2 4 5 5 6 7 6 9 4 6 5
13 13 13 14 14 12 1 1 2 2 1 4 4 7 6 7 6 6 5 6 11 45
14 14 14 15 9 0 0 2 1 2 4 3 8 6 6 6 6 5 6 21 60 55
15 14 18 4 1 0 1 2 3 2 4 5 8 6 7 6 6 7 25 67 51 21
12 16 3 2 3 3 3 2 3 6 4 8 6 8 5 6 8 31 64 47 18 6
15 4 4 4 4 3 3 4 6 4 5 6 9 6 7 8 29 62 46 20 5 12
9 3 4 4 3 3 5 6 3 6 6 9 6 7 8 20 58 47 23 3 11 14
7 4 3 3 3 6 6 4 6 7 10 6 6 7 9 44 55 32 11 10 15 12
7 6 6 4 4 7 4 5 7 9 7 7 6 8 31 54 43 19 4 11 14 11
Height
5786 5781 5774 5770 5765 5760 5755 5750 5744 5739 5734 5729 5724 5719 5714 5708 5702 5696 5689 5682 5675 5667
5778 5773 5767 5760 5756 5749 5743 5739 5733 5728 5724 5720 5715 5709 5702 5695 5688 5680 5670 5661 5652 5643
5772 5765 5758 5752 5747 5743 5737 5731 5726 5721 5716 5710 5704 5697 5689 5680 5670 5661 5650 5640 5630 5619
5763 5758 5752 5745 5740 5735 5729 5723 5718 5713 5707 5701 5693 5685 5675 5664 5654 5642 5631 5619 5607 5595
5754 5749 5742 5737 5733 5728 5722 5716 5711 5705 5698 5690 5681 5671 5660 5648 5635 5622 5609 5597 5582 5567
5746 5740 5734 5729 5724 5719 5714 5709 5703 5696 5687 5678 5667 5655 5643 5630 5616 5601 5587 5570 5553 5537
5737 5731 5726 5721 5717 5712 5707 5701 5694 5685 5675 5664 5653 5640 5626 5610 5594 5579 5561 5544 5526 5507
5730 5724 5718 5714 5710 5705 5699 5692 5683 5673 5663 5651 5638 5623 5607 5590 5574 5556 5537 5516 5498 5484
5723 5718 5714 5710 5704 5698 5690 5682 5672 5661 5650 5637 5621 5604 5588 5571 5552 5531 5512 5494 5482 5474
5717 5713 5708 5702 5696 5689 5681 5671 5660 5648 5635 5622 5605 5587 5568 5550 5529 5508 5490 5480 5475 5469
5710 5706 5700 5694 5687 5679 5670 5659 5648 5635 5621 5606 5589 5570 5550 5529 5507 5489 5478 5473 5468 5463
5704 5699 5693 5686 5678 5669 5659 5647 5634 5621 5606 5591 5574 5554 5533 5511 5491 5478 5471 5467 5462 5457
5698 5693 5686 5678 5668 5658 5647 5635 5621 5606 5591 5575 5558 5539 5519 5498 5481 5472 5467 5461 5455 5450
5690 5685 5677 5668 5658 5648 5636 5622 5609 5594 5578 5560 5541 5520 5499 5483 5472 5466 5461 5456 5450 5445